Location: Cieszkowy
(50.3290°N, 20.5336°E)
Time: 00:31:59
(UTC+00:00)

NPP - Pass Details

Date: 15 June 2024
Orbit: 826 x 828 km, 98.7° (Epoch: 18 July)

Event Time Altitude Azimuth Distance (km) Brightness Sun altitude
Rises 00:25:52 0° 16° (NNE) 3,382 8.7 -12.6°
Reaches altitude 10° 00:28:14 10° 18° (NNE) 2,443 7.6 -12.4°
Maximum altitude 00:33:39 75° 104° (ESE) 862 3.8 -12.1°
Enters shadow 00:38:19 14° 189° (S) 2,151 5.2 -11.7°
